Location: Pasarilla del Rebollar
(40.6790°N, 5.0062°W)
Time: 10:55:20
(UTC+00:00)

Meteor 1-10 Rocket - Pass Details

Date: 22 April 2026
Orbit: 835 x 908 km, 81.3° (Epoch: 15 May)

Event Time Altitude Azimuth Distance (km) Brightness Sun altitude
Exits shadow 03:11:31 56° 237° (WSW) 1,019 4.2 -23.7°
Maximum altitude 03:12:25 65° 282° (WNW) 952 4.2 -23.6°
Drops below altitude 10° 03:18:10 10° 4° (N) 2,547 7.3 -22.8°
Sets 03:20:41 0° 7° (N) 3,500 8.1 -22.5°
